User: anonymous   Login
Location: Caltech
(34.1382°N, 118.1253°W)
Time: 22:06:43
(UTC-07:00)
Language:

Iridium 49 - Orbit

View from above orbital plane
View from above orbital plane
View from above satellite
View from above satellite

Ground track
Ground track

The orbit data is extracted from the following two-line orbital elements,

1 25108U 97082E   16240.45925537  .00000101  00000-0  28932-4 0  9995
2 25108  86.3977  18.2036 0002048  95.4649 326.3933 14.34216103978276
Epoch (UTC): 27 August 2016 11:01:19
Eccentricity: 0.0002048
inclination: 86.3977°
perigee height: 776 km
apogee height: 779 km
right ascension of ascending node: 18.2036°
argument of perigee: 95.4649°
revolutions per day: 14.34216103
mean anomaly at epoch: 326.3933°
orbit number at epoch: 97827

The dashed part of the orbit path shows where the satellite is in the earth's shadow,  

DLR